| time (UTC) | temp F | wind direction | speed MPH | gust MPH | rain 1hr in | rain 24hr in | rain mn in | humidity % | barometer mb |
| 20260504150543 | 43 | 300 | 1.0 | 8.0 | 0.00 | 0.00 | 0.00 | 73 | 1000.6 |
| 20260504150512 | 42 | 294 | 2.0 | 8.0 | 0.00 | 0.00 | 0.00 | 73 | 1000.5 |
| 20260504141040 | 43 | 0 | 2.0 | 8.0 | 0.00 | 0.00 | 0.00 | 71 | 1000.0 |
| 20260504140540 | 43 | 0 | 2.0 | 11.0 | 0.00 | 0.00 | 0.00 | 73 | 999.9 |
| 20260504130540 | 42 | 315 | 3.0 | 11.0 | 0.00 | 0.00 | 0.00 | 79 | 999.1 |
| 20260504110542 | 47 | 0 | 1.0 | 7.0 | 0.00 | 0.00 | 0.00 | 72 | 996.6 |
| 20260504100545 | 47 | 0 | 0.0 | 6.0 | 0.00 | 0.00 | 0.00 | 72 | 995.9 |
| 20260504090104 | 48 | 331 | 2.0 | 11.0 | 0.00 | 0.00 | 0.00 | 70 | 996.4 |
| 20260504081554 | 50 | 288 | 4.0 | 25.0 | 0.00 | 0.00 | 0.00 | 66 | 996.2 |
| 20260504081042 | 51 | 346 | 7.0 | 25.0 | 0.00 | 0.00 | 0.00 | 66 | 995.9 |
| 20260504080542 | 51 | 331 | 8.0 | 24.0 | 0.00 | 0.00 | 0.00 | 65 | 995.7 |
| 20260504050539 | 58 | 0 | 0.0 | 7.0 | 0.00 | 0.00 | 0.00 | 47 | 995.6 |
| 20260504045546 | 57 | 0 | 0.0 | 5.0 | 0.00 | 0.00 | 0.00 | 46 | 995.8 |
| 20260504045039 | 57 | 0 | 0.0 | 4.0 | 0.00 | 0.00 | 0.00 | 47 | 995.9 |
| 20260504044555 | 57 | 0 | 0.0 | 3.0 | 0.00 | 0.00 | 0.00 | 47 | 996.1 |
| 20260504044042 | 57 | 0 | 0.0 | 7.0 | 0.00 | 0.00 | 0.00 | 47 | 996.2 |
| 20260504043539 | 57 | 0 | 0.0 | 7.0 | 0.00 | 0.00 | 0.00 | 47 | 996.2 |
| 20260504043053 | 57 | 0 | 0.0 | 7.0 | 0.00 | 0.00 | 0.00 | 47 | 996.3 |
| 20260504042544 | 57 | 0 | 0.0 | 1.0 | 0.00 | 0.00 | 0.00 | 47 | 996.6 |
| 20260504042042 | 57 | 0 | 0.0 | 4.0 | 0.00 | 0.00 | 0.00 | 48 | 996.8 |
| 20260504041552 | 57 | 0 | 0.0 | 4.0 | 0.00 | 0.00 | 0.00 | 48 | 996.8 |
| 20260504041042 | 56 | 0 | 0.0 | 1.0 | 0.00 | 0.00 | 0.00 | 49 | 997.0 |
| 20260504040542 | 56 | 0 | 0.0 | 1.0 | 0.00 | 0.00 | 0.00 | 49 | 997.1 |
| 20260504040057 | 56 | 0 | 0.0 | 1.0 | 0.00 | 0.00 | 0.00 | 49 | 997.2 |
| 20260504035545 | 56 | 0 | 0.0 | 0.0 | 0.00 | 0.00 | 0.00 | 51 | 997.4 |
| 20260504035042 | 55 | 0 | 0.0 | 0.0 | 0.00 | 0.00 | 0.00 | 51 | 997.4 |
| 20260504034555 | 55 | 0 | 0.0 | 0.0 | 0.00 | 0.00 | 0.00 | 51 | 997.6 |
| 20260504034042 | 55 | 0 | 0.0 | 0.0 | 0.00 | 0.00 | 0.00 | 51 | 997.7 |
| 20260504033543 | 55 | 0 | 0.0 | 0.0 | 0.00 | 0.00 | 0.00 | 52 | 997.8 |
| 20260504033053 | 55 | 0 | 0.0 | 0.0 | 0.00 | 0.00 | 0.00 | 53 | 998.0 |
| 20260504032542 | 55 | 0 | 0.0 | 0.0 | 0.00 | 0.00 | 0.00 | 52 | 998.1 |
| 20260504032039 | 55 | 0 | 0.0 | 0.0 | 0.00 | 0.00 | 0.00 | 53 | 998.3 |
| 20260504031550 | 55 | 0 | 0.0 | 0.0 | 0.00 | 0.00 | 0.00 | 53 | 998.4 |
| 20260504031041 | 55 | 0 | 0.0 | 0.0 | 0.00 | 0.00 | 0.00 | 52 | 998.4 |
| 20260504030541 | 55 | 0 | 0.0 | 0.0 | 0.00 | 0.00 | 0.00 | 52 | 998.6 |
| 20260504030048 | 55 | 0 | 0.0 | 0.0 | 0.00 | 0.00 | 0.00 | 53 | 998.8 |
| 20260504025543 | 55 | 0 | 0.0 | 0.0 | 0.00 | 0.00 | 0.00 | 52 | 998.9 |
| 20260504025042 | 55 | 0 | 0.0 | 0.0 | 0.00 | 0.00 | 0.00 | 52 | 998.9 |
| 20260504024558 | 54 | 0 | 0.0 | 0.0 | 0.00 | 0.00 | 0.00 | 53 | 999.1 |
| 20260504024043 | 54 | 0 | 0.0 | 1.0 | 0.00 | 0.00 | 0.00 | 52 | 999.2 |
| 20260504023541 | 54 | 0 | 0.0 | 1.0 | 0.00 | 0.00 | 0.00 | 51 | 999.2 |
| 20260504023048 | 55 | 0 | 0.0 | 0.0 | 0.00 | 0.00 | 0.00 | 51 | 999.2 |
| 20260504022542 | 55 | 0 | 0.0 | 0.0 | 0.00 | 0.00 | 0.00 | 51 | 999.4 |
| 20260504022043 | 55 | 0 | 0.0 | 0.0 | 0.00 | 0.00 | 0.00 | 51 | 999.4 |
| 20260504021550 | 55 | 0 | 0.0 | 0.0 | 0.00 | 0.00 | 0.00 | 50 | 999.5 |
| 20260504021042 | 55 | 0 | 0.0 | 0.0 | 0.00 | 0.00 | 0.00 | 50 | 999.7 |
| 20260504020543 | 56 | 0 | 0.0 | 0.0 | 0.00 | 0.00 | 0.00 | 50 | 999.7 |
| 20260504020046 | 56 | 0 | 0.0 | 0.0 | 0.00 | 0.00 | 0.00 | 49 | 999.8 |
| 20260504015544 | 56 | 0 | 0.0 | 0.0 | 0.00 | 0.00 | 0.00 | 48 | 999.9 |
| 20260504015043 | 57 | 0 | 0.0 | 0.0 | 0.00 | 0.00 | 0.00 | 48 | 1000.0 |
| 20260504014554 | 57 | 0 | 0.0 | 0.0 | 0.00 | 0.00 | 0.00 | 47 | 1000.1 |
| 20260504014039 | 57 | 0 | 0.0 | 1.0 | 0.00 | 0.00 | 0.00 | 46 | 1000.2 |
| 20260504013542 | 58 | 0 | 0.0 | 1.0 | 0.00 | 0.00 | 0.00 | 46 | 1000.3 |
| 20260504013103 | 59 | 0 | 0.0 | 1.0 | 0.00 | 0.00 | 0.00 | 46 | 1000.4 |
| 20260504012543 | 59 | 0 | 0.0 | 0.0 | 0.00 | 0.00 | 0.00 | 45 | 1000.5 |
| 20260504012045 | 60 | 0 | 0.0 | 0.0 | 0.00 | 0.00 | 0.00 | 44 | 1000.7 |
| 20260504011549 | 60 | 0 | 0.0 | 0.0 | 0.00 | 0.00 | 0.00 | 43 | 1000.7 |
| 20260504011043 | 61 | 0 | 0.0 | 1.0 | 0.00 | 0.00 | 0.00 | 43 | 1000.9 |
| 20260504010543 | 62 | 0 | 0.0 | 1.0 | 0.00 | 0.00 | 0.00 | 42 | 1001.1 |
| 20260504010058 | 62 | 0 | 0.0 | 0.0 | 0.00 | 0.00 | 0.00 | 42 | 1001.1 |
| 20260504005542 | 63 | 0 | 0.0 | 0.0 | 0.00 | 0.00 | 0.00 | 41 | 1001.3 |
| 20260504005043 | 64 | 0 | 0.0 | 1.0 | 0.00 | 0.00 | 0.00 | 40 | 1001.4 |
| 20260504004600 | 64 | 0 | 0.0 | 1.0 | 0.00 | 0.00 | 0.00 | 39 | 1001.5 |
| 20260504004042 | 64 | 0 | 0.0 | 3.0 | 0.00 | 0.00 | 0.00 | 38 | 1001.6 |
| 20260504003543 | 65 | 0 | 0.0 | 3.0 | 0.00 | 0.00 | 0.00 | 37 | 1001.7 |
| 20260504003044 | 65 | 0 | 0.0 | 7.0 | 0.00 | 0.00 | 0.00 | 38 | 1001.8 |
| 20260504002544 | 65 | 0 | 0.0 | 7.0 | 0.00 | 0.00 | 0.00 | 37 | 1001.9 |
| 20260504002042 | 66 | 0 | 0.0 | 1.0 | 0.00 | 0.00 | 0.00 | 37 | 1002.0 |
| 20260504001549 | 66 | 0 | 0.0 | 1.0 | 0.00 | 0.00 | 0.00 | 36 | 1002.1 |
| 20260504001042 | 66 | 0 | 0.0 | 5.0 | 0.00 | 0.00 | 0.00 | 36 | 1002.2 |
| 20260504000544 | 67 | 0 | 0.0 | 6.0 | 0.00 | 0.00 | 0.00 | 37 | 1002.2 |
| 20260504000048 | 67 | 0 | 0.0 | 8.0 | 0.00 | 0.00 | 0.00 | 35 | 1002.2 |
| 20260503235542 | 67 | 0 | 0.0 | 8.0 | 0.00 | 0.00 | 0.00 | 35 | 1002.3 |
| 20260503235042 | 68 | 0 | 1.0 | 11.0 | 0.00 | 0.00 | 0.00 | 34 | 1002.4 |
| 20260503234549 | 68 | 0 | 0.0 | 11.0 | 0.00 | 0.00 | 0.00 | 35 | 1002.5 |
| 20260503234043 | 68 | 0 | 1.0 | 10.0 | 0.00 | 0.00 | 0.00 | 35 | 1002.6 |
| 20260503233543 | 68 | 0 | 0.0 | 11.0 | 0.00 | 0.00 | 0.00 | 34 | 1002.7 |
| 20260503233049 | 68 | 0 | 1.0 | 12.0 | 0.00 | 0.00 | 0.00 | 34 | 1002.8 |
| 20260503232543 | 68 | 282 | 3.0 | 12.0 | 0.00 | 0.00 | 0.00 | 34 | 1002.8 |
| 20260503232042 | 67 | 0 | 3.0 | 13.0 | 0.00 | 0.00 | 0.00 | 35 | 1003.0 |
| 20260503231549 | 68 | 248 | 2.0 | 16.0 | 0.00 | 0.00 | 0.00 | 33 | 1003.1 |
| 20260503231044 | 68 | 219 | 4.0 | 16.0 | 0.00 | 0.00 | 0.00 | 33 | 1003.2 |
| 20260503230545 | 69 | 252 | 0.0 | 11.0 | 0.00 | 0.00 | 0.00 | 34 | 1003.2 |
| 20260503230055 | 68 | 0 | 0.0 | 11.0 | 0.00 | 0.00 | 0.00 | 35 | 1003.2 |
| 20260503225542 | 68 | 250 | 2.0 | 11.0 | 0.00 | 0.00 | 0.00 | 33 | 1003.2 |
| 20260503225042 | 68 | 263 | 3.0 | 11.0 | 0.00 | 0.00 | 0.00 | 34 | 1003.3 |
| 20260503224549 | 68 | 282 | 1.0 | 11.0 | 0.00 | 0.00 | 0.00 | 35 | 1003.4 |
| 20260503224046 | 69 | 248 | 0.0 | 9.0 | 0.00 | 0.00 | 0.00 | 33 | 1003.6 |
| 20260503223543 | 68 | 0 | 0.0 | 9.0 | 0.00 | 0.00 | 0.00 | 34 | 1003.7 |
| 20260503223052 | 68 | 278 | 0.0 | 10.0 | 0.00 | 0.00 | 0.00 | 35 | 1003.7 |
| 20260503222542 | 67 | 0 | 1.0 | 11.0 | 0.00 | 0.00 | 0.00 | 34 | 1003.9 |
| 20260503222041 | 67 | 259 | 3.0 | 11.0 | 0.00 | 0.00 | 0.00 | 35 | 1004.0 |
| 20260503221550 | 67 | 0 | 3.0 | 11.0 | 0.00 | 0.00 | 0.00 | 34 | 1004.0 |
| 20260503221041 | 67 | 0 | 2.0 | 11.0 | 0.00 | 0.00 | 0.00 | 35 | 1004.2 |
| 20260503220541 | 66 | 258 | 4.0 | 11.0 | 0.00 | 0.00 | 0.00 | 34 | 1004.3 |
| 20260503220049 | 67 | 0 | 0.0 | 11.0 | 0.00 | 0.00 | 0.00 | 35 | 1004.2 |
| 20260503215540 | 67 | 262 | 2.0 | 11.0 | 0.00 | 0.00 | 0.00 | 33 | 1004.4 |
| 20260503215041 | 67 | 0 | 0.0 | 10.0 | 0.00 | 0.00 | 0.00 | 33 | 1004.5 |
| 20260503214550 | 66 | 252 | 1.0 | 11.0 | 0.00 | 0.00 | 0.00 | 35 | 1004.6 |
| 20260503214041 | 66 | 0 | 3.0 | 11.0 | 0.00 | 0.00 | 0.00 | 32 | 1004.5 |
| 20260503213542 | 67 | 223 | 1.0 | 10.0 | 0.00 | 0.00 | 0.00 | 33 | 1004.8 |
| 20260503213048 | 67 | 0 | 0.0 | 10.0 | 0.00 | 0.00 | 0.00 | 34 | 1004.8 |
| 20260503212542 | 66 | 0 | 1.0 | 10.0 | 0.00 | 0.00 | 0.00 | 33 | 1004.9 |
| 20260503212039 | 66 | 248 | 2.0 | 14.0 | 0.00 | 0.00 | 0.00 | 34 | 1004.9 |
| 20260503211549 | 66 | 259 | 3.0 | 14.0 | 0.00 | 0.00 | 0.00 | 33 | 1005.0 |
| 20260503211042 | 66 | 262 | 0.0 | 17.0 | 0.00 | 0.00 | 0.00 | 35 | 1005.0 |
| 20260503210541 | 65 | 0 | 4.0 | 17.0 | 0.00 | 0.00 | 0.00 | 32 | 1005.2 |
| 20260503210047 | 67 | 275 | 1.0 | 12.0 | 0.00 | 0.00 | 0.00 | 35 | 1005.3 |
| 20260503205541 | 65 | 255 | 4.0 | 13.0 | 0.00 | 0.00 | 0.00 | 33 | 1005.3 |
| 20260503205042 | 65 | 261 | 3.0 | 13.0 | 0.00 | 0.00 | 0.00 | 33 | 1005.5 |
| 20260503204547 | 66 | 250 | 3.0 | 11.0 | 0.00 | 0.00 | 0.00 | 34 | 1005.5 |
| 20260503204041 | 66 | 0 | 3.0 | 11.0 | 0.00 | 0.00 | 0.00 | 35 | 1005.6 |
| 20260503203539 | 65 | 264 | 3.0 | 11.0 | 0.00 | 0.00 | 0.00 | 35 | 1005.7 |
| 20260503203052 | 66 | 0 | 2.0 | 13.0 | 0.00 | 0.00 | 0.00 | 37 | 1005.8 |
| 20260503202539 | 65 | 294 | 1.0 | 13.0 | 0.00 | 0.00 | 0.00 | 38 | 1006.0 |
| 20260503202043 | 65 | 248 | 3.0 | 12.0 | 0.00 | 0.00 | 0.00 | 37 | 1006.1 |
| 20260503201547 | 65 | 259 | 2.0 | 13.0 | 0.00 | 0.00 | 0.00 | 39 | 1006.3 |
| 20260503201042 | 64 | 262 | 0.0 | 13.0 | 0.00 | 0.00 | 0.00 | 40 | 1006.4 |
| 20260503200541 | 64 | 265 | 3.0 | 11.0 | 0.00 | 0.00 | 0.00 | 37 | 1006.5 |
| 20260503200050 | 64 | 0 | 2.0 | 14.0 | 0.00 | 0.00 | 0.00 | 37 | 1006.5 |
| 20260503195542 | 64 | 0 | 1.0 | 14.0 | 0.00 | 0.00 | 0.00 | 40 | 1006.6 |
| 20260503195041 | 63 | 272 | 2.0 | 12.0 | 0.00 | 0.00 | 0.00 | 38 | 1006.6 |
| 20260503194548 | 63 | 0 | 1.0 | 12.0 | 0.00 | 0.00 | 0.00 | 37 | 1006.7 |
| 20260503194043 | 63 | 272 | 0.0 | 11.0 | 0.00 | 0.00 | 0.00 | 40 | 1006.9 |
| 20260503193542 | 63 | 295 | 1.0 | 9.0 | 0.00 | 0.00 | 0.00 | 41 | 1007.0 |
| 20260503193050 | 63 | 257 | 0.0 | 9.0 | 0.00 | 0.00 | 0.00 | 40 | 1007.1 |
| 20260503192541 | 63 | 271 | 1.0 | 9.0 | 0.00 | 0.00 | 0.00 | 41 | 1007.0 |
| 20260503192041 | 62 | 0 | 1.0 | 9.0 | 0.00 | 0.00 | 0.00 | 39 | 1007.1 |
| 20260503191553 | 62 | 0 | 1.0 | 10.0 | 0.00 | 0.00 | 0.00 | 38 | 1007.3 |
| 20260503191043 | 62 | 0 | 1.0 | 10.0 | 0.00 | 0.00 | 0.00 | 38 | 1007.4 |
| 20260503190546 | 63 | 258 | 1.0 | 16.0 | 0.00 | 0.00 | 0.00 | 38 | 1007.6 |
| 20260503190048 | 62 | 286 | 3.0 | 16.0 | 0.00 | 0.00 | 0.00 | 39 | 1007.6 |
| 20260503185543 | 62 | 288 | 4.0 | 16.0 | 0.00 | 0.00 | 0.00 | 42 | 1007.7 |
| 20260503185046 | 62 | 258 | 2.0 | 12.0 | 0.00 | 0.00 | 0.00 | 38 | 1007.6 |
| 20260503184559 | 62 | 260 | 1.0 | 11.0 | 0.00 | 0.00 | 0.00 | 41 | 1007.9 |
| 20260503184044 | 62 | 252 | 1.0 | 11.0 | 0.00 | 0.00 | 0.00 | 41 | 1007.9 |
| 20260503183542 | 62 | 0 | 2.0 | 11.0 | 0.00 | 0.00 | 0.00 | 38 | 1008.1 |
| 20260503183049 | 62 | 304 | 1.0 | 11.0 | 0.00 | 0.00 | 0.00 | 41 | 1008.0 |
| 20260503182544 | 61 | 0 | 2.0 | 12.0 | 0.00 | 0.00 | 0.00 | 37 | 1008.1 |
| 20260503182040 | 61 | 0 | 1.0 | 12.0 | 0.00 | 0.00 | 0.00 | 38 | 1008.2 |
| 20260503181548 | 61 | 259 | 3.0 | 12.0 | 0.00 | 0.00 | 0.00 | 38 | 1008.3 |
| 20260503181044 | 61 | 0 | 0.0 | 13.0 | 0.00 | 0.00 | 0.00 | 40 | 1008.5 |
| 20260503180546 | 60 | 266 | 4.0 | 14.0 | 0.00 | 0.00 | 0.00 | 38 | 1008.5 |
| 20260503180101 | 61 | 244 | 5.0 | 14.0 | 0.00 | 0.00 | 0.00 | 39 | 1008.5 |
| 20260503175543 | 61 | 243 | 0.0 | 12.0 | 0.00 | 0.00 | 0.00 | 38 | 1008.6 |
| 20260503175044 | 61 | 0 | 1.0 | 12.0 | 0.00 | 0.00 | 0.00 | 40 | 1008.6 |
| 20260503174549 | 61 | 311 | 2.0 | 9.0 | 0.00 | 0.00 | 0.00 | 38 | 1008.6 |
| 20260503174045 | 61 | 0 | 0.0 | 16.0 | 0.00 | 0.00 | 0.00 | 40 | 1008.7 |
| 20260503173543 | 60 | 292 | 4.0 | 16.0 | 0.00 | 0.00 | 0.00 | 40 | 1008.7 |
| 20260503173056 | 60 | 248 | 2.0 | 11.0 | 0.00 | 0.00 | 0.00 | 40 | 1008.8 |
| 20260503172544 | 60 | 0 | 1.0 | 11.0 | 0.00 | 0.00 | 0.00 | 40 | 1008.9 |
| 20260503172043 | 60 | 0 | 2.0 | 12.0 | 0.00 | 0.00 | 0.00 | 42 | 1008.9 |
| 20260503171550 | 60 | 295 | 1.0 | 12.0 | 0.00 | 0.00 | 0.00 | 42 | 1009.1 |
| 20260503171043 | 60 | 0 | 0.0 | 14.0 | 0.00 | 0.00 | 0.00 | 40 | 1009.1 |
| 20260503170544 | 60 | 330 | 2.0 | 16.0 | 0.00 | 0.00 | 0.00 | 38 | 1009.3 |